Flood From: 24-02-2018 06:00 Until: 25-02-2018 06:00 warning for: Flood Level: Yellow info button

Although rather usual in this region, locally or potentially dangerous phenomena are expected. (such as local winds, summer thunderstorms, rising streams or high waves) Be aware and pay attention to the latest weather updates, especially if you carry out activities exposed to weather or close to a stream or shoreline. 


Meteo18 Weather Cam more information Meteo18 Weather Cam


Thunder radar more information blitzortung!


Rain radar more information rain snow radar


Visit our other weather sites:

Template documentation
and downloads

And another site



Weather Underground History page Text

Daily Summary for February 26, 2017 Units:  English    Metric   Both
« Previous Day
Next Day »
Daily Weekly Monthly Yearly Custom
  High: Low: Average:
Temperature: TemperatureC °F 0.8 °F 6.5 °F
Dew Point: DewpointC °F -0.7 °F 4.1 °F
Humidity: Humidity % 72 % 85 %
Wind Speed: WindSpeedKMH mph 0.0 mph 6.1 mph
Wind Gust: WindSpeedGustKMH mph - -
Wind:- - SW
Pressure: PressurehPa in 1014.8 in -
Precipitation: 0.0 in    
Historical Graphs
 
 
Tabular Data for February 26, 2017
Time Temperature Dew Point Pressure Wind Wind Speed Wind Gust Humidity Rainfall Rate (Hourly)
TemperatureC °F DewpointC °F PressurehPa in Calm     Humidity % HourlyPrecipMM in
00:02 3.5 °F -0.3 °F 1019.5 in Calm     76 % 0.0 in
00:12 3.4 °F -0.2 °F 1019.5 in Calm     77 % 0.0 in
00:17 3.6 °F 0.1 °F 1019.5 in Calm     78 % 0.0 in
00:22 3.6 °F 0.1 °F 1019.5 in Calm   1.6 mph 78 % 0.0 in
00:27 3.4 °F -0.1 °F 1019.2 in Calm   1.6 mph 78 % 0.0 in
00:32 3.3 °F 0.0 °F 1019.2 in Calm   4.8 mph 79 % 0.0 in
00:42 2.7 °F -0.4 °F 1019.2 in Calm   4.8 mph 80 % 0.0 in
00:47 2.6 °F -0.3 °F 1019.2 in Calm   4.8 mph 81 % 0.0 in
00:52 2.4 °F -0.4 °F 1019.2 in Calm   1.6 mph 82 % 0.0 in
00:57 2.3 °F -0.3 °F 1018.8 in Calm   3.2 mph 83 % 0.0 in
01:02 2.3 °F -0.1 °F 1018.8 in Calm   3.2 mph 84 % 0.0 in
01:12 3.6 °F 0.6 °F 1019.2 in SW 3.2 mph 4.8 mph 81 % 0.0 in
01:17 3.9 °F 0.4 °F 1018.8 in SSW 1.6 mph 4.8 mph 78 % 0.0 in
01:22 3.7 °F 0.4 °F 1018.8 in SSW 3.2 mph 4.8 mph 79 % 0.0 in
01:27 3.6 °F 0.3 °F 1018.8 in SSW 3.2 mph 4.8 mph 79 % 0.0 in
01:32 3.7 °F 0.4 °F 1018.8 in SSW 1.6 mph 4.8 mph 79 % 0.0 in
01:37 3.8 °F 0.5 °F 1018.8 in SW 1.6 mph 4.8 mph 79 % 0.0 in
01:42 3.9 °F 0.4 °F 1018.8 in Calm   4.8 mph 78 % 0.0 in
01:47 3.8 °F 0.3 °F 1018.8 in Calm   4.8 mph 78 % 0.0 in
01:52 3.7 °F 0.2 °F 1018.8 in Calm   4.8 mph 78 % 0.0 in
01:57 3.6 °F 0.3 °F 1018.8 in Calm   1.6 mph 79 % 0.0 in
02:02 3.6 °F 0.3 °F 1018.8 in Calm   1.6 mph 79 % 0.0 in
02:12 3.1 °F 0.0 °F 1018.8 in Calm   1.6 mph 80 % 0.0 in
02:17 3.1 °F 0.2 °F 1018.8 in Calm     81 % 0.0 in
02:22 2.9 °F -0.2 °F 1018.8 in Calm     80 % 0.0 in
02:32 2.8 °F 0.0 °F 1018.8 in Calm     82 % 0.0 in
02:37 2.8 °F 0.0 °F 1018.8 in Calm     82 % 0.0 in
02:42 2.7 °F -0.1 °F 1018.8 in Calm     82 % 0.0 in
02:47 2.5 °F -0.3 °F 1018.8 in Calm     82 % 0.0 in
02:57 2.1 °F -0.3 °F 1018.8 in Calm     84 % 0.0 in
03:02 1.9 °F -0.5 °F 1018.8 in Calm     84 % 0.0 in
03:12 1.7 °F -0.6 °F 1018.8 in Calm     85 % 0.0 in
03:17 1.6 °F -0.5 °F 1018.8 in Calm     86 % 0.0 in
03:22 1.6 °F -0.5 °F 1018.8 in Calm     86 % 0.0 in
03:32 1.8 °F -0.3 °F 1018.8 in Calm     86 % 0.0 in
03:37 1.9 °F -0.2 °F 1018.8 in Calm     86 % 0.0 in
03:42 1.9 °F -0.2 °F 1018.8 in Calm     86 % 0.0 in
03:47 1.9 °F -0.4 °F 1018.8 in Calm     85 % 0.0 in
03:52 1.8 °F -0.5 °F 1018.8 in Calm     85 % 0.0 in
03:57 1.7 °F -0.4 °F 1018.8 in Calm     86 % 0.0 in
04:02 1.7 °F -0.4 °F 1018.8 in Calm     86 % 0.0 in
04:12 1.7 °F -0.2 °F 1018.5 in Calm   1.6 mph 87 % 0.0 in
04:17 1.7 °F -0.4 °F 1018.5 in Calm   1.6 mph 86 % 0.0 in
04:22 1.5 °F -0.6 °F 1018.5 in Calm   1.6 mph 86 % 0.0 in
04:27 1.3 °F -0.6 °F 1018.5 in Calm   1.6 mph 87 % 0.0 in
04:32 1.3 °F -0.5 °F 1018.5 in Calm   1.6 mph 88 % 0.0 in
04:37 1.3 °F -0.5 °F 1018.5 in Calm     88 % 0.0 in
04:42 1.3 °F -0.5 °F 1018.5 in Calm     88 % 0.0 in
04:47 1.3 °F -0.5 °F 1018.5 in Calm     88 % 0.0 in
04:52 1.2 °F -0.6 °F 1018.5 in Calm     88 % 0.0 in
04:57 1.1 °F -0.7 °F 1018.5 in Calm     88 % 0.0 in
05:02 1.1 °F -0.7 °F 1018.5 in Calm     88 % 0.0 in
05:07 1.1 °F -0.5 °F 1018.5 in Calm     89 % 0.0 in
05:12 1.1 °F -0.5 °F 1018.5 in Calm     89 % 0.0 in
05:22 1.2 °F -0.4 °F 1018.5 in Calm     89 % 0.0 in
05:32 1.3 °F -0.3 °F 1018.5 in Calm     89 % 0.0 in
05:37 1.3 °F -0.5 °F 1018.5 in Calm     88 % 0.0 in
05:42 1.3 °F -0.5 °F 1018.5 in Calm     88 % 0.0 in
05:47 1.3 °F -0.5 °F 1018.5 in Calm     88 % 0.0 in
05:52 1.3 °F -0.5 °F 1018.5 in Calm     88 % 0.0 in
05:57 1.2 °F -0.6 °F 1018.5 in Calm     88 % 0.0 in
06:02 1.2 °F -0.6 °F 1018.5 in Calm     88 % 0.0 in
06:07 1.1 °F -0.5 °F 1018.5 in Calm     89 % 0.0 in
06:12 1.1 °F -0.5 °F 1018.5 in Calm     89 % 0.0 in
06:17 1.2 °F -0.4 °F 1018.5 in Calm     89 % 0.0 in
06:22 1.3 °F -0.3 °F 1018.5 in Calm     89 % 0.0 in
06:27 1.4 °F -0.4 °F 1018.5 in Calm     88 % 0.0 in
06:32 1.4 °F -0.4 °F 1018.5 in Calm     88 % 0.0 in
06:42 1.3 °F -0.5 °F 1018.5 in Calm     88 % 0.0 in
06:47 1.3 °F -0.3 °F 1018.5 in Calm     89 % 0.0 in
06:52 1.3 °F -0.5 °F 1018.8 in NNE 1.6 mph   88 % 0.0 in
06:57 1.2 °F -0.4 °F 1018.8 in Calm     89 % 0.0 in
07:02 1.2 °F -0.4 °F 1018.8 in Calm   3.2 mph 89 % 0.0 in
07:12 1.2 °F -0.4 °F 1018.8 in Calm   3.2 mph 89 % 0.0 in
07:17 1.2 °F -0.4 °F 1018.8 in Calm     89 % 0.0 in
07:22 1.2 °F -0.4 °F 1018.8 in Calm     89 % 0.0 in
07:32 1.1 °F -0.5 °F 1018.8 in Calm   1.6 mph 89 % 0.0 in
07:37 1.0 °F -0.6 °F 1018.5 in Calm     89 % 0.0 in
07:42 0.9 °F -0.6 °F 1018.5 in Calm     90 % 0.0 in
07:52 0.8 °F -0.7 °F 1018.8 in Calm   1.6 mph 90 % 0.0 in
08:02 0.9 °F -0.4 °F 1018.8 in Calm     91 % 0.0 in
08:07 1.1 °F -0.2 °F 1019.2 in Calm     91 % 0.0 in
08:12 1.3 °F -0.2 °F 1019.2 in Calm     90 % 0.0 in
08:22 1.6 °F 0.0 °F 1018.8 in Calm     89 % 0.0 in
08:32 1.6 °F 0.0 °F 1019.2 in Calm     89 % 0.0 in
08:37 1.6 °F 0.0 °F 1019.2 in Calm   3.2 mph 89 % 0.0 in
08:42 1.6 °F 0.1 °F 1019.5 in Calm   3.2 mph 90 % 0.0 in
08:52 1.8 °F 0.2 °F 1019.5 in Calm   3.2 mph 89 % 0.0 in
09:02 2.2 °F 0.4 °F 1019.2 in Calm   1.6 mph 88 % 0.0 in
09:07 2.4 °F 0.6 °F 1018.8 in Calm     88 % 0.0 in
09:12 2.6 °F 0.7 °F 1019.2 in Calm     87 % 0.0 in
09:17 2.8 °F 0.9 °F 1019.5 in Calm   4.8 mph 87 % 0.0 in
09:22 2.9 °F 0.8 °F 1019.2 in Calm   4.8 mph 86 % 0.0 in
09:32 3.4 °F 1.0 °F 1019.2 in Calm   4.8 mph 84 % 0.0 in
09:42 3.9 °F 1.4 °F 1019.5 in Calm   1.6 mph 84 % 0.0 in
09:52 4.4 °F 1.9 °F 1019.5 in SSW 1.6 mph 1.6 mph 84 % 0.0 in
10:02 4.9 °F 1.9 °F 1019.5 in South 1.6 mph 3.2 mph 81 % 0.0 in
10:12 5.6 °F 2.4 °F 1019.5 in SW 4.8 mph 4.8 mph 80 % 0.0 in
10:17 5.8 °F 2.3 °F 1019.2 in SSE 1.6 mph 6.4 mph 78 % 0.0 in
10:22 6.0 °F 2.3 °F 1019.2 in SW 1.6 mph 6.4 mph 77 % 0.0 in
10:32 6.4 °F 2.5 °F 1019.2 in SW 6.4 mph 6.4 mph 76 % 0.0 in
10:42 6.8 °F 2.5 °F 1019.5 in SSW 8.0 mph 11.3 mph 74 % 0.0 in
10:47 7.1 °F 2.4 °F 1019.5 in West 11.3 mph 20.9 mph 72 % 0.0 in
10:52 7.2 °F 2.5 °F 1019.5 in SW 9.7 mph 20.9 mph 72 % 0.0 in
10:57 7.3 °F 2.8 °F 1019.5 in SW 4.8 mph 20.9 mph 73 % 0.0 in
11:02 7.3 °F 2.6 °F 1019.5 in SW 4.8 mph 20.9 mph 72 % 0.0 in
11:12 7.5 °F 3.4 °F 1019.5 in SW 6.4 mph 17.7 mph 75 % 0.0 in
11:17 7.6 °F 3.3 °F 1019.2 in SW 12.9 mph 17.7 mph 74 % 0.0 in
11:22 7.8 °F 3.6 °F 1019.2 in SW 8.0 mph 17.7 mph 75 % 0.0 in
11:32 8.0 °F 3.8 °F 1019.5 in SW 6.4 mph 16.1 mph 75 % 0.0 in
11:42 8.4 °F 4.4 °F 1019.2 in SW 12.9 mph 12.9 mph 76 % 0.0 in
11:52 8.6 °F 4.6 °F 1019.2 in SSW 11.3 mph 17.7 mph 76 % 0.0 in
12:02 8.7 °F 4.5 °F 1019.2 in SW 14.5 mph 22.5 mph 75 % 0.0 in
12:12 8.9 °F 4.9 °F 1019.2 in SW 14.5 mph 24.1 mph 76 % 0.0 in
12:17 9.0 °F 5.0 °F 1019.2 in SW 14.5 mph 24.1 mph 76 % 0.0 in
12:22 9.2 °F 5.2 °F 1018.8 in SW 16.1 mph 24.1 mph 76 % 0.0 in
12:27 9.2 °F 5.2 °F 1018.8 in WSW 17.7 mph 24.1 mph 76 % 0.0 in
12:32 9.2 °F 5.4 °F 1018.8 in SW 22.5 mph 25.7 mph 77 % 0.0 in
12:42 9.3 °F 5.5 °F 1018.8 in SSW 12.9 mph 25.7 mph 77 % 0.0 in
12:52 9.3 °F 5.5 °F 1018.8 in SSW 20.9 mph 24.1 mph 77 % 0.0 in
12:57 9.3 °F 5.5 °F 1018.8 in SW 24.1 mph 25.7 mph 77 % 0.0 in
13:02 9.4 °F 5.8 °F 1018.5 in SSW 14.5 mph 25.7 mph 78 % 0.0 in
13:12 9.5 °F 5.9 °F 1018.5 in WSW 16.1 mph 25.7 mph 78 % 0.0 in
13:17 9.6 °F 6.1 °F 1018.5 in SW 9.7 mph 27.4 mph 79 % 0.0 in
13:22 9.6 °F 6.1 °F 1018.5 in WSW 16.1 mph 27.4 mph 79 % 0.0 in
13:32 9.6 °F 6.3 °F 1018.2 in SW 19.3 mph 29.0 mph 80 % 0.0 in
13:42 9.7 °F 6.2 °F 1018.2 in SW 16.1 mph 29.0 mph 79 % 0.0 in
13:47 9.8 °F 6.5 °F 1018.2 in SSW 14.5 mph 25.7 mph 80 % 0.0 in
13:52 9.8 °F 6.7 °F 1018.2 in SW 20.9 mph 25.7 mph 81 % 0.0 in
14:02 9.8 °F 6.9 °F 1018.2 in SW 12.9 mph 27.4 mph 82 % 0.0 in
14:12 9.9 °F 7.1 °F 1017.8 in WSW 9.7 mph 27.4 mph 83 % 0.0 in
14:17 9.9 °F 7.1 °F 1017.8 in SW 14.5 mph 24.1 mph 83 % 0.0 in
14:22 9.9 °F 7.1 °F 1017.8 in SW 12.9 mph 24.1 mph 83 % 0.0 in
14:27 10.1 °F 7.5 °F 1017.8 in WSW 16.1 mph 24.1 mph 84 % 0.0 in
14:32 10.2 °F 7.4 °F 1017.5 in West 22.5 mph 24.1 mph 83 % 0.0 in
14:42 10.1 °F 7.5 °F 1017.5 in SW 12.9 mph 22.5 mph 84 % 0.0 in
14:47 10.2 °F 7.8 °F 1017.5 in SW 17.7 mph 22.5 mph 85 % 0.0 in
14:52 10.2 °F 7.8 °F 1017.5 in SW 9.7 mph 22.5 mph 85 % 0.0 in
14:57 10.2 °F 7.8 °F 1017.5 in SW 16.1 mph 22.5 mph 85 % 0.0 in
15:02 10.3 °F 7.9 °F 1017.5 in SSW 12.9 mph 22.5 mph 85 % 0.0 in
15:12 10.3 °F 7.7 °F 1017.5 in SW 12.9 mph 22.5 mph 84 % 0.0 in
15:17 10.3 °F 7.7 °F 1017.5 in SW 8.0 mph 20.9 mph 84 % 0.0 in
15:22 10.4 °F 7.8 °F 1017.2 in WSW 8.0 mph 20.9 mph 84 % 0.0 in
15:27 10.5 °F 7.9 °F 1017.2 in SW 11.3 mph 17.7 mph 84 % 0.0 in
15:32 10.6 °F 8.0 °F 1017.2 in SSW 16.1 mph 17.7 mph 84 % 0.0 in
15:37 10.6 °F 8.2 °F 1017.2 in SSE 14.5 mph 20.9 mph 85 % 0.0 in
15:42 10.6 °F 8.2 °F 1017.2 in SW 12.9 mph 20.9 mph 85 % 0.0 in
15:47 10.6 °F 8.2 °F 1017.2 in SSW 4.8 mph 20.9 mph 85 % 0.0 in
15:52 10.6 °F 8.2 °F 1017.2 in SSW 8.0 mph 20.9 mph 85 % 0.0 in
15:57 10.6 °F 8.2 °F 1017.2 in SW 4.8 mph 17.7 mph 85 % 0.0 in
16:02 10.6 °F 8.2 °F 1017.2 in WSW 6.4 mph 17.7 mph 85 % 0.0 in
16:12 10.4 °F 8.2 °F 1017.2 in SSW 6.4 mph 16.1 mph 86 % 0.0 in
16:17 10.4 °F 8.2 °F 1017.2 in SSW 8.0 mph 17.7 mph 86 % 0.0 in
16:22 10.4 °F 8.2 °F 1017.2 in SW 9.7 mph 17.7 mph 86 % 0.0 in
16:32 10.6 °F 8.5 °F 1017.2 in SW 8.0 mph 16.1 mph 87 % 0.0 in
16:37 10.6 °F 8.5 °F 1017.2 in SSW 9.7 mph 16.1 mph 87 % 0.0 in
16:42 10.4 °F 8.5 °F 1017.2 in SW 9.7 mph 16.1 mph 88 % 0.0 in
16:47 10.3 °F 8.6 °F 1017.2 in SW 8.0 mph 16.1 mph 89 % 0.0 in
16:52 10.2 °F 8.5 °F 1017.2 in SSW 4.8 mph 14.5 mph 89 % 0.0 in
16:57 10.2 °F 8.5 °F 1017.2 in SW 4.8 mph 12.9 mph 89 % 0.0 in
17:02 10.3 °F 8.6 °F 1017.2 in WSW 4.8 mph 12.9 mph 89 % 0.0 in
17:07 10.5 °F 8.4 °F 1017.2 in SW 6.4 mph 8.0 mph 87 % 0.0 in
17:12 10.7 °F 8.5 °F 1016.8 in SW 11.3 mph 11.3 mph 86 % 0.0 in
17:17 10.8 °F 8.6 °F 1017.2 in SW 8.0 mph 11.3 mph 86 % 0.0 in
17:22 10.9 °F 8.5 °F 1017.2 in SW 6.4 mph 12.9 mph 85 % 0.0 in
17:27 10.9 °F 8.6 °F 1016.8 in SW 6.4 mph 12.9 mph 86 % 0.0 in
17:32 10.8 °F 8.7 °F 1016.8 in SW 9.7 mph 12.9 mph 87 % 0.0 in
17:37 10.7 °F 8.6 °F 1016.8 in SSW 8.0 mph 12.9 mph 87 % 0.0 in
17:42 10.7 °F 8.6 °F 1016.8 in SW 6.4 mph 12.9 mph 87 % 0.0 in
17:47 10.8 °F 8.6 °F 1016.8 in SSW 8.0 mph 12.9 mph 86 % 0.0 in
17:52 10.8 °F 8.6 °F 1016.8 in SW 8.0 mph 12.9 mph 86 % 0.0 in
17:57 10.8 °F 8.6 °F 1016.8 in SW 12.9 mph 14.5 mph 86 % 0.0 in
18:02 10.9 °F 8.6 °F 1016.8 in SW 8.0 mph 14.5 mph 86 % 0.0 in
18:12 10.8 °F 8.6 °F 1016.8 in SW 9.7 mph 19.3 mph 86 % 0.0 in
18:17 10.7 °F 8.6 °F 1016.8 in SSE 6.4 mph 19.3 mph 87 % 0.0 in
18:22 10.7 °F 8.6 °F 1016.8 in SW 12.9 mph 17.7 mph 87 % 0.0 in
18:32 10.7 °F 8.6 °F 1016.8 in SSW 4.8 mph 17.7 mph 87 % 0.0 in
18:37 10.6 °F 8.5 °F 1016.8 in SW 4.8 mph 17.7 mph 87 % 0.0 in
18:42 10.6 °F 8.5 °F 1016.8 in SSW 6.4 mph 16.1 mph 87 % 0.0 in
18:47 10.6 °F 8.5 °F 1016.8 in SW 16.1 mph 16.1 mph 87 % 0.0 in
18:57 10.6 °F 8.7 °F 1016.8 in WSW 4.8 mph 22.5 mph 88 % 0.0 in
19:02 10.5 °F 8.6 °F 1016.8 in SW 8.0 mph 22.5 mph 88 % 0.0 in
19:12 10.4 °F 8.5 °F 1016.8 in SW 14.5 mph 20.9 mph 88 % 0.0 in
19:17 10.3 °F 8.6 °F 1016.8 in SW 11.3 mph 19.3 mph 89 % 0.0 in
19:22 10.2 °F 8.6 °F 1016.8 in SW 9.7 mph 19.3 mph 90 % 0.0 in
19:32 10.1 °F 8.7 °F 1016.8 in SW 11.3 mph 19.3 mph 91 % 0.0 in
19:42 10.1 °F 8.7 °F 1016.8 in SW 9.7 mph 16.1 mph 91 % 0.0 in
19:47 10.0 °F 8.6 °F 1016.8 in SW 8.0 mph 14.5 mph 91 % 0.0 in
19:52 9.9 °F 8.5 °F 1016.8 in SW 6.4 mph 14.5 mph 91 % 0.0 in
19:57 9.9 °F 8.7 °F 1016.8 in SW 11.3 mph 14.5 mph 92 % 0.0 in
20:02 9.9 °F 8.5 °F 1016.8 in SW 8.0 mph 14.5 mph 91 % 0.0 in
20:07 10.0 °F 8.6 °F 1016.8 in SW 9.7 mph 16.1 mph 91 % 0.0 in
20:12 10.0 °F 8.6 °F 1016.5 in SW 8.0 mph 16.1 mph 91 % 0.0 in
20:17 9.9 °F 8.5 °F 1016.5 in SW 8.0 mph 17.7 mph 91 % 0.0 in
20:22 9.9 °F 8.5 °F 1016.5 in WSW 12.9 mph 17.7 mph 91 % 0.0 in
20:32 9.9 °F 8.3 °F 1016.5 in SW 16.1 mph 17.7 mph 90 % 0.0 in
20:42 9.9 °F 8.3 °F 1016.5 in SSW 6.4 mph 16.1 mph 90 % 0.0 in
20:47 10.0 °F 8.4 °F 1016.5 in SW 8.0 mph 16.1 mph 90 % 0.0 in
20:52 10.0 °F 8.4 °F 1016.5 in SW 11.3 mph 16.1 mph 90 % 0.0 in
20:57 9.9 °F 8.3 °F 1016.5 in SSW 1.6 mph 14.5 mph 90 % 0.0 in
21:02 10.0 °F 8.4 °F 1016.1 in SW 6.4 mph 14.5 mph 90 % 0.0 in
21:12 10.0 °F 8.4 °F 1016.1 in SW 9.7 mph 14.5 mph 90 % 0.0 in
21:17 9.9 °F 8.3 °F 1016.1 in SW 8.0 mph 16.1 mph 90 % 0.0 in
21:22 9.9 °F 8.3 °F 1016.1 in SSW 8.0 mph 16.1 mph 90 % 0.0 in
21:32 9.8 °F 8.2 °F 1016.1 in SSW 12.9 mph 14.5 mph 90 % 0.0 in
21:37 9.8 °F 8.2 °F 1016.1 in SW 14.5 mph 19.3 mph 90 % 0.0 in
21:42 9.8 °F 8.2 °F 1016.1 in SW 12.9 mph 19.3 mph 90 % 0.0 in
21:47 9.7 °F 8.1 °F 1016.1 in SSW 6.4 mph 17.7 mph 90 % 0.0 in
21:52 9.6 °F 8.0 °F 1015.8 in SSW 6.4 mph 17.7 mph 90 % 0.0 in
21:57 9.6 °F 8.0 °F 1015.8 in SSW 8.0 mph 14.5 mph 90 % 0.0 in
22:02 9.6 °F 8.0 °F 1015.8 in SSW 9.7 mph 14.5 mph 90 % 0.0 in
22:12 9.6 °F 8.0 °F 1015.8 in SSW 11.3 mph 16.1 mph 90 % 0.0 in
22:17 9.6 °F 8.0 °F 1015.8 in SSW 9.7 mph 17.7 mph 90 % 0.0 in
22:22 9.6 °F 8.0 °F 1015.8 in SW 12.9 mph 19.3 mph 90 % 0.0 in
22:27 9.6 °F 8.0 °F 1015.8 in SSW 9.7 mph 19.3 mph 90 % 0.0 in
22:32 9.6 °F 8.0 °F 1015.5 in SSW 12.9 mph 19.3 mph 90 % 0.0 in
22:42 9.7 °F 8.0 °F 1015.5 in SSW 8.0 mph 19.3 mph 89 % 0.0 in
22:47 9.7 °F 8.0 °F 1015.5 in SW 17.7 mph 20.9 mph 89 % 0.0 in
22:52 9.8 °F 8.1 °F 1015.5 in SW 8.0 mph 20.9 mph 89 % 0.0 in
23:02 9.7 °F 8.0 °F 1015.5 in SSW 8.0 mph 19.3 mph 89 % 0.0 in
23:12 9.6 °F 7.9 °F 1015.5 in SW 12.9 mph 19.3 mph 89 % 0.0 in
23:17 9.6 °F 7.9 °F 1015.1 in SSW 9.7 mph 16.1 mph 89 % 0.0 in
23:22 9.6 °F 7.9 °F 1015.5 in SSW 6.4 mph 17.7 mph 89 % 0.0 in
23:27 9.6 °F 7.9 °F 1015.1 in SSW 9.7 mph 17.7 mph 89 % 0.0 in
23:32 9.6 °F 7.9 °F 1015.1 in SSW 11.3 mph 17.7 mph 89 % 0.0 in
23:37 9.6 °F 7.9 °F 1015.1 in SSW 11.3 mph 17.7 mph 89 % 0.0 in
23:42 9.5 °F 7.8 °F 1015.1 in SSW 4.8 mph 17.7 mph 89 % 0.0 in
23:47 9.4 °F 7.7 °F 1014.8 in South 8.0 mph 16.1 mph 89 % 0.0 in
23:52 9.4 °F 7.7 °F 1014.8 in SW 11.3 mph 16.1 mph 89 % 0.0 in
23:57 9.4 °F 7.7 °F 1014.8 in SSW 11.3 mph 14.5 mph 89 % 0.0 in
Meteo18
Compliments of Weather Underground - 4 mb

Script developed by  Jim McMurry - jmcmurry@mwt.net Adapted for the template by  Wim van der Kuil - Leuven-Template.eu

You find our weather info also at:

European Weather Network

Weather Underground

Equipment we use:

Weather-station
Davis Vue

Weather-program
Meteobridge

Weather-server
Raspberry PI 2 B+

Provider
1 and 1

Davis Vue

Meteobridge

Raspberry PI 2 B+

1 and 1